TimeCST,TemperatureF,Dew PointF,Humidity,Sea Level PressureIn,VisibilityMPH,Wind Direction,Wind SpeedMPH,Gust SpeedMPH,PrecipitationIn,Events,Conditions,WindDirDegrees,DateUTC
12:53 AM,39.0,37.0,93,30.40,7.0,SSW,3.5,-,0.00,Rain,Light Rain,200,2013-01-05 06:53:00
1:53 AM,37.9,35.1,89,30.39,10.0,Calm,Calm,-,0.00,,Overcast,0,2013-01-05 07:53:00
2:53 AM,37.9,35.1,89,30.38,10.0,SSW,3.5,-,0.00,,Overcast,200,2013-01-05 08:53:00
3:53 AM,37.9,35.1,89,30.38,10.0,Calm,Calm,-,0.00,,Overcast,0,2013-01-05 09:53:00
4:53 AM,37.9,35.1,89,30.36,10.0,Calm,Calm,-,N/A,,Overcast,0,2013-01-05 10:53:00
5:53 AM,39.0,36.0,89,30.35,10.0,Calm,Calm,-,N/A,,Overcast,0,2013-01-05 11:53:00
6:53 AM,37.9,36.0,93,30.35,10.0,Calm,Calm,-,N/A,,Overcast,0,2013-01-05 12:53:00
7:53 AM,39.0,36.0,89,30.36,10.0,Calm,Calm,-,N/A,,Overcast,0,2013-01-05 13:53:00
8:53 AM,39.9,37.0,89,30.38,10.0,WSW,3.5,-,N/A,,Overcast,250,2013-01-05 14:53:00
9:44 AM,39.9,37.0,89,30.38,10.0,West,6.9,-,N/A,,Overcast,280,2013-01-05 15:44:00
9:53 AM,41.0,37.0,86,30.39,10.0,WNW,6.9,-,N/A,,Overcast,300,2013-01-05 15:53:00
10:14 AM,42.1,37.9,85,30.37,10.0,WNW,9.2,-,N/A,,Mostly Cloudy,290,2013-01-05 16:14:00
10:53 AM,42.1,37.0,82,30.38,10.0,Variable,4.6,-,N/A,,Overcast,0,2013-01-05 16:53:00
11:53 AM,43.0,37.0,80,30.34,10.0,Variable,4.6,-,N/A,,Overcast,0,2013-01-05 17:53:00
12:53 PM,46.9,39.0,74,30.30,10.0,Variable,3.5,-,N/A,,Overcast,0,2013-01-05 18:53:00
1:23 PM,48.0,37.9,68,30.27,10.0,Calm,Calm,-,N/A,,Partly Cloudy,0,2013-01-05 19:23:00
1:53 PM,50.0,37.9,63,30.26,10.0,WNW,5.8,-,N/A,,Partly Cloudy,300,2013-01-05 19:53:00
2:53 PM,52.0,37.0,57,30.24,10.0,West,3.5,-,N/A,,Clear,280,2013-01-05 20:53:00
3:53 PM,54.0,37.0,53,30.23,10.0,Calm,Calm,-,N/A,,Clear,0,2013-01-05 21:53:00
4:53 PM,54.0,39.0,57,30.24,10.0,South,5.8,-,N/A,,Clear,190,2013-01-05 22:53:00
5:53 PM,50.0,39.0,66,30.25,10.0,Calm,Calm,-,N/A,,Clear,0,2013-01-05 23:53:00
6:53 PM,45.0,39.0,80,30.26,10.0,Calm,Calm,-,N/A,,Clear,0,2013-01-06 00:53:00
7:53 PM,43.0,37.9,82,30.28,10.0,North,3.5,-,N/A,,Clear,10,2013-01-06 01:53:00
8:53 PM,39.0,35.1,86,30.29,10.0,Calm,Calm,-,N/A,,Clear,0,2013-01-06 02:53:00
9:53 PM,37.0,34.0,89,30.30,10.0,Calm,Calm,-,N/A,,Clear,0,2013-01-06 03:53:00
10:53 PM,35.1,32.0,89,30.31,10.0,Calm,Calm,-,N/A,,Clear,0,2013-01-06 04:53:00
11:53 PM,34.0,32.0,92,30.32,10.0,Calm,Calm,-,N/A,,Clear,0,2013-01-06 05:53:00